Regional Weather Roundup
Issued by NWS

Home | Current Version | Previous Version | Text Only | Print | Product List | Glossary On
Versions: 1 2 3 4 5 6 7 8 9 10 11 12 13 14 15 16 17 18 19 20 21 22 23 24 25 26 27 28 29 30 31 32 33 34 35 36 37 38 39 40 41 42 43 44 45 46 47 48 49 50
000
ASUS45 KBOU 242307
RWRCO

WEATHER ROUNDUP FOR COLORADO
NATIONAL WEATHER SERVICE DENVER/BOULDER CO
500 PM MDT SUN SEP 24 2017

NOTE: "FAIR" INDICATES FEW OR NO CLOUDS BELOW 12000 FEET WITH NO
SIGNIFICANT WEATHER AND/OR OBSTRUCTIONS TO VISIBILITY.

COZ001>005-013-030-031-250000-
...NORTHWEST COLORADO...

CITY           SKY/WX    TMP DP  RH WIND       PRES   REMARKS
CRAIG          PTSUNNY   57  17  21 SW18G30   29.93R
HAYDEN         CLOUDY    52  31  44 S5        29.96R
MEEKER         FAIR      58  16  19 S20G30    29.94R
RABBIT EARS PA CLOUDY    32  30  93 NW8G20    30.06R WCI  25
STEAMBOAT SPGS CLOUDY    46  33  60 NW13      29.98R
WALDEN         CLOUDY    39  36  87 NW14G20   30.00R
$$

COZ006>008-011-250000-
...WEST CENTRAL VALLEYS...

CITY           SKY/WX    TMP DP  RH WIND       PRES   REMARKS
GRAND JUNCTION PTSUNNY   65  22  19 NW13      29.93R
MONTROSE       FAIR      61  20  20 W17G33    29.93R
EAGLE          PTSUNNY   55  25  31 W22       29.96R
RIFLE          CLOUDY    61  21  21 S12       29.94R
DELTA          NOT AVBL
NUCLA          FAIR      61  10  13 SW21      30.03R
$$

COZ017>023-064>068-250000-
...SOUTHWEST COLORADO...

CITY           SKY/WX    TMP DP  RH WIND       PRES   REMARKS
DURANGO        FAIR      59  21  23 W13       30.00R
CORTEZ         FAIR      60  20  21 S12       30.00R
PAGOSA SPRINGS FAIR      57  13  17 S12       30.04R
TELLURIDE      FAIR      47  15  27 S13G31    30.08R
WOLF CREEK PAS FAIR      32  19  59 SW22G37   30.21R WCI  19
$$

COZ009-010-012-014-032>034-037-058>063-250000-
...CENTRAL COLORADO...

CITY           SKY/WX    TMP DP  RH WIND       PRES   REMARKS
ASPEN          CLOUDY    50  28  42 N14G26    29.96R
BUENA VISTA    FAIR      62  19  19 SE22G30   29.91R
COPPER MTN     CLOUDY    41  12  30 SE17G32   30.08S
BERTHOUD PASS  HAZE      27  18  69 E24G45    30.11S VSB<1/4 WCI  12
COTTONWOOD PAS FAIR      59   1  10 S5        30.01R
GUNNISON       FAIR      56  24  29 W15G21    29.96R
KREMMLING      PTSUNNY   59  32  36 W12G22    29.94R
LEADVILLE      PTSUNNY   51  13  21 S23G33    29.98R
MONARCH PASS   FAIR      41  10  28 SW35G45   30.21R
SALIDA         FAIR      65  12  12 S12G21    29.98R
SUNLIGHT       FAIR      32  23  69 SW20G35   30.10R WCI  20
WILKERSON PASS FAIR      43  32  65 S12G22    30.14S
$$

COZ069>075-250000-
...SAN LUIS VALLEY/SANGRE DE CRISTO MOUNTAINS...

CITY           SKY/WX    TMP DP  RH WIND       PRES   REMARKS
ALAMOSA        FAIR      62  17  17 SW25G31   29.97R
DEL NORTE      FAIR      58  21  24 W16G36    30.00R
LA VETA PASS   FAIR      46  34  61 S10       30.22R HAZE
SAGUACHE       FAIR      61  19  20 W14G25    29.98R
$$

COZ035-036-038>040-250000-
...NORTHERN COLORADO FRONT RANGE...

CITY           SKY/WX    TMP DP  RH WIND       PRES   REMARKS
DENVER INTL AP CLOUDY    48  45  89 E14       29.98S FOG
DMNS CITY PARK   N/A     48  47  97 E6G17     29.98S
AURORA         CLOUDY    47  47 100 NE14      29.98S FOG
FRONT RANGE AP NOT AVBL
ERIE MUNI ARPT DRIZZLE   48  46  92 NE5       30.04S
BOULDER MUN AP DRIZZLE   46  46 100 NE5       29.99S
CENTENNIAL     DRIZZLE   47  46  97 NE10G18   29.97S FOG
BROOMFIELD     DRZL/FOG  46  46 100 N8        29.99S VSB 1
FORT COLLINS   LGT RAIN  46  46 100 E8        30.00R FOG
LONGMONT       LGT RAIN  50  47  88 E5        30.01R
$$

COZ041-046-047-076>085-087-088-250000-
...PIKES PEAK/PALMER DIVIDE AND SOUTHERN FOOTHILLS...

CITY           SKY/WX    TMP DP  RH WIND       PRES   REMARKS
COLO. SPRINGS  PTSUNNY   54  47  77 S10       29.98S
A. F. ACADEMY  CLOUDY    54  45  70 SE10      29.97R
SCHRIEVER AFB  PTSUNNY   52  46  82 NE13      29.98R
CHEYENNE MTN   PTSUNNY   49  44  85 S7        29.94S
ELLICOTT       CLOUDY   N/A N/A N/A E10       29.98R
FALCON         CLOUDY    51  45  79 SE8       30.01R
FORT CARSON    LGT RAIN  55  46  71 S8        29.96R
LIMON            N/A    N/A N/A N/A MISG        N/A
MONUMENT HILL  FAIR      48  43  81 SE10      30.01S
CANON CITY     CLOUDY    59  50  72 E10       29.94R
WALSENBURG     NOT AVBL
TRINIDAD       PTSUNNY   60  53  77 NE13      29.92R
$$

COZ042>045-048>051-090-091-250000-
...NORTHEAST COLORADO...

CITY           SKY/WX    TMP DP  RH WIND       PRES   REMARKS
GREELEY ARPT   CLOUDY    50  46  86 E10       29.99F
AKRON          CLOUDY    48  46  93 E12       29.98F FOG
BURLINGTON     CLOUDY    52  52 100 NE10      29.96R FOG
WRAY           CLOUDY    52  52 100 NE9       29.97S
YUMA           CLOUDY    48  46  93 NE9       29.98R FOG
STERLING       CLOUDY    52  46  82 NE8       29.98S
HOLYOKE        CLOUDY    54  50  87 NE13      29.99F
FORT MORGAN    CLOUDY    50  44  81 NE10      30.00R
$$

COZ086-089-092>099-250000-
...SOUTHEAST COLORADO...

CITY           SKY/WX    TMP DP  RH WIND       PRES   REMARKS
PUEBLO         CLOUDY    56  52  86 SE9       29.93R
LA JUNTA       CLOUDY    57  56  96 NE9       29.91S FOG
LAMAR          CLOUDY    59  55  87 NE10      29.87F
SPRINGFIELD      N/A     66  63  90 NE16      29.87S
$$



USA.gov is the U.S. government's official web portal to all federal, state and local government web resources and services.